This is the latest recevied weather packets stored in our database for station/object WA1OUI. If no packets are shown the sender has not sent any weather packets the latest 10 day(s).
| Time | Temp. | Humidity | Pressure | Rain* | Wind** | Luminosity | Snow |
|---|---|---|---|---|---|---|---|
| 1777547773 | 8.89° C | 98% | 1006.2 hPa | 0 mm | - | 23 W/m² | - |
| 1777547469 | 8.89° C | 98% | 1006.1 hPa | 0 mm | - | 19 W/m² | - |
| 1777547168 | 8.89° C | 98% | 1006 hPa | 0.51 mm | - | 17 W/m² | - |
| 1777546865 | 8.89° C | 98% | 1006.1 hPa | 0.51 mm | - | 12 W/m² | - |
| 1777546561 | 8.89° C | 98% | 1006.1 hPa | 0 mm | - | 10 W/m² | - |
| 1777546258 | 8.89° C | 98% | 1005.9 hPa | 0 mm | - | 12 W/m² | - |
| 1777545955 | 8.89° C | 98% | 1005.8 hPa | 0 mm | - | 13 W/m² | - |
| 1777545651 | 8.89° C | 98% | 1005.7 hPa | 0 mm | - | 9 W/m² | - |
| 1777545349 | 8.89° C | 98% | 1005.8 hPa | 0 mm | - | 6 W/m² | - |
| 1777545046 | 8.89° C | 98% | 1005.9 hPa | 0 mm | - | 5 W/m² | - |
| 1777544743 | 8.89° C | 98% | 1005.6 hPa | 0 mm | - | 4 W/m² | - |
| 1777544438 | 8.89° C | 98% | 1005.7 hPa | 0 mm | - | 3 W/m² | - |
| 1777544134 | 8.89° C | 98% | 1005.5 hPa | 0 mm | - | 3 W/m² | - |
| 1777543832 | 8.89° C | 98% | 1005.6 hPa | 0 mm | - | 2 W/m² | - |
| 1777543528 | 8.89° C | 98% | 1005.6 hPa | 0 mm | - | 2 W/m² | - |
| 1777543225 | 8.89° C | 98% | 1005.8 hPa | 0 mm | - | 1 W/m² | - |
| 1777542920 | 8.89° C | 98% | 1005.7 hPa | 0 mm | - | 1 W/m² | - |
| 1777542617 | 8.89° C | 98% | 1005.8 hPa | 0 mm | - | 0 W/m² | - |
| 1777542313 | 8.89° C | 98% | 1005.8 hPa | 0 mm | - | 0 W/m² | - |
| 1777542010 | 8.89° C | 98% | 1005.8 hPa | 0 mm | - | 0 W/m² | - |
| 1777541708 | 8.89° C | 98% | 1006 hPa | 0 mm | - | 0 W/m² | - |
| 1777541404 | 8.89° C | 98% | 1005.9 hPa | 0 mm | - | 0 W/m² | - |
| 1777541100 | 8.89° C | 98% | 1006.1 hPa | 0 mm | - | 0 W/m² | - |
| 1777540798 | 8.89° C | 98% | 1006 hPa | 0.51 mm | - | 0 W/m² | - |
| 1777540495 | 8.89° C | 98% | 1006.1 hPa | 0 mm | - | 0 W/m² | - |
* Rain latest hour (hover to see other rain measurements)
** Current wind speed in m/s (hover to see current wind gust speed)